Regional Weather Roundup
Issued by NWS

Home | Current Version | Previous Version | Text Only | Print | Product List | Glossary Off
Versions: 1 2 3 4 5 6 7 8 9 10 11 12 13 14 15 16 17 18 19 20 21 22 23 24 25 26 27 28 29 30 31 32 33 34 35 36 37 38 39 40 41 42 43 44 45 46 47 48 49 50

000
ASUS45 KCYS 240510
RWRWY

WYOMING REGIONAL WEATHER ROUNDUP
NATIONAL WEATHER SERVICE CHEYENNE WY
1000 PM MST SUN NOV 23 2014

NOTE:  "FAIR" INDICATES FEW OR NO CLOUDS BELOW 12,000 FEET
WITH NO SIGNIFICANT WEATHER AND/OR OBSTRUCTIONS TO VISIBILITY.

WYZ001-240600-
YELLOWSTONE NATIONAL PARK

CITY           SKY/WX    TMP DP  RH WIND       PRES   REMARKS
LK YELLOWSTONE   N/A     20  15  81 VRB5      29.93S WCI  13
W YELLOWSTONE  NOT AVBL

$$
WYZ002>013-054>058-071-098>099-240600-
NORTHERN WYOMING

CITY           SKY/WX    TMP DP  RH WIND       PRES   REMARKS
JACKSON        CLOUDY    25  23  93 SW13      30.00S WCI  13
CODY           MOCLDY    34  18  51 W15G24    29.83F WCI  24
GREYBULL       CLOUDY    26  19  74 E6        29.89R WCI  19
WORLAND        CLOUDY    26  17  68 VRB3      29.88S
SHERIDAN       CLOUDY    36  17  46 NW8       29.82F WCI  30
BUFFALO        PTCLDY    30   8  39 VRB5      29.80F WCI  25
GILLETTE       NOT AVBL
HULETT           N/A    N/A N/A N/A MISG        N/A
NEWCASTLE      FAIR      27  19  74 NW13      29.78R WCI  16

$$
WYZ014>020-022>026-101>103-240600-
CENTRAL WYOMING

CITY           SKY/WX    TMP DP  RH WIND       PRES   REMARKS
BIG PINEY      PTCLDY    27   9  46 SE7       30.02S WCI  19
PINEDALE       MOCLDY    14  12  92 CALM      30.01F
DUBOIS         FAIR      23  14  68 NW15G24   29.90F WCI  10
LANDER         NOT AVBL
RIVERTON       MOCLDY    30  14  51 NW26G33   29.88R WCI  16
CASPER         CLEAR     22  14  71 SW10      29.87F WCI  11
DOUGLAS        CLEAR    N/A N/A N/A NW13      29.86R

$$
WYZ021-027>030-104>119-240600-
SOUTHERN WYOMING

CITY           SKY/WX    TMP DP  RH WIND       PRES   REMARKS
EVANSTON       MOCLDY    22  18  85 SW17      30.10F WCI   8
FORT BRIDGER   CLOUDY    25  20  82 W24G31    30.10F WCI   9
ROCK SPRINGS   PTCLDY    21  13  71 W32G39    30.03F WCI   2
DIXON          CLOUDY    17  11  79 S12G20    30.07R WCI   4
RAWLINS        CLEAR     20  12  71 W24G37    29.95S WCI   3
SARATOGA       FAIR      19  12  73 SW7       29.96F WCI  10
LARAMIE        CLEAR     19   6  57 W18       29.86R WCI   4
CHEYENNE       CLEAR     24  10  55 NW10      29.83F WCI  14
TORRINGTON     CLEAR     26  19  74 W12       29.82F WCI  16
PINE BLUFFS    FAIR      27  16  63 W17       29.84F WCI  14

$$


USA.gov is the U.S. government's official web portal to all federal, state and local government web resources and services.